Tracking 18987 objects as of 25-Feb-2018
HD Live streaming from Space Station
objects crossing your sky now

FENGYUN 1C DEB

Track FENGYUN 1C DEB now!
10-day predictions


NORAD ID: 30262
Int'l Code: 1999-025XX
Perigee: 608.2 km
Apogee: 702.4 km
Inclination: 99.1 °
Period: 97.7 minutes
Semi major axis: 7026 km
RCS: 0.025 m2 (small)
Launch date: May 10, 1999
Source: People's Republic of China (PRC)
Launch site: Taiyaun Space Center, China (TSC)

Note: This is SATELLITE DEBRIS
aabbcc
Your satellite tracking list
Your tracking list is empty




NASA's NSSDC Master Catalog

Two Line Element Set (TLE):
1 30262U 99025XX  18056.48312596  .00002770  00000-0  41548-3 0  9997
2 30262  99.0517  43.3981 0067036  50.9076 309.8065 14.74065437588545
Source of the keplerian elements: AFSPC